Regional Weather Roundup
Issued by NWS

Home | Current Version | Previous Version | Text Only | Print | Product List | Glossary On
Versions: 1 2 3 4 5 6 7 8 9 10 11 12 13 14 15 16 17 18 19 20 21 22 23 24 25 26 27 28 29 30 31 32 33 34 35 36 37 38 39 40 41 42 43 44 45 46 47 48 49 50
000
ASUS43 KMKX 282300
RWRWI

WISCONSIN REGIONAL WEATHER ROUNDUP
NATIONAL WEATHER SERVICE MILWAUKEE/SULLIVAN WI
600 PM CDT WED JUN 28 2017

NOTE: "FAIR" INDICATES FEW OR NO CLOUDS BELOW 12,000 FEET WITH NO
SIGNIFICANT WEATHER AND/OR OBSTRUCTIONS TO VISIBILITY.

WIZ001-002-006>008-014>016-023>028-290000-
NORTHWEST WISCONSIN

CITY           SKY/WX    TMP DP  RH WIND       PRES   REMARKS
SUPERIOR ARPT  NOT AVBL
ASHLAND        CLOUDY    65  64  97 E5        29.55F
HAYWARD        LGT RAIN  68  64  87 SE9       29.53F
SIREN          CLOUDY    69  66  91 S7        29.51F
CUMBERLAND     DRIZZLE   68  64  88 S12G23    29.54S
RICE LAKE      LGT RAIN  69  66  92 SE9       29.55F
CHETEK         CLOUDY    69  67  90 S7        29.55F
LADYSMITH      CLOUDY    69  67  92 SE6       29.59F
EAU CLAIRE     LGT RAIN  72  66  83 S12       29.54F
MENOMONIE      FAIR      66  66  99 SE8       29.54F THUNDER
NEW RICHMOND   CLOUDY    69  67  93 CALM      29.53S
OSCEOLA        CLOUDY    70  70 100 W8        29.55R
$$

WIZ003>005-009-010-017-018-290000-
NORTH CENTRAL WISCONSIN

CITY           SKY/WX    TMP DP  RH WIND       PRES   REMARKS
MANITOWISH WTR DRIZZLE   62  62 100 SE6       29.62F
ARBOR VITAE    RAIN      63  62  96 SE7       29.62F
WOODRUFF       RAIN      63  62  96 SE7       29.62F
RHINELANDER    LGT RAIN  62  62 100 SE6       29.66S
EAGLE RIVER    LGT RAIN  62  61  99 S5        29.66F
LAND O LAKES   LGT RAIN  62  61  96 S8        29.68F
PHILLIPS       CLOUDY    64  64 100 S6        29.61S
TOMAHAWK       NOT AVBL
MEDFORD        CLOUDY    67  64  91 S12       29.61S
MERRILL        CLOUDY    66  65  99 S5        29.64S
$$

WIZ029-030-035-036-043>047-290000-
CENTRAL WISCONSIN

CITY           SKY/WX    TMP DP  RH WIND       PRES   REMARKS
WAUSAU         CLOUDY    66  64  93 S13       29.63F
MOSINEE        CLOUDY    66  64  94 S15       29.65F
MARSHFIELD     CLOUDY    67  64  90 S9        29.62F
STEVENS POINT  CLOUDY    66  65  97 S8        29.66S
WAUPACA        CLOUDY    69  68  95 S8        29.68F
WAUTOMA        CLOUDY    68  66  93 VRB6      29.65F
WISC RAPIDS    CLOUDY    69  66  90 S9        29.67R
CAMP DOUGLAS   NOT AVBL
$$

WIZ011>013-019>022-031-037>040-048>050-290000-
NORTHEAST WISCONSIN

CITY           SKY/WX    TMP DP  RH WIND       PRES   REMARKS
ANTIGO         DRIZZLE   63  63  99 S10       29.67F
SHAWANO        CLOUDY    70  66  88 S7        29.66F
OCONTO         CLOUDY    67  64  91 S7        29.69F
STURGEON BAY     N/A     61  59  93 S14       29.72F
GREEN BAY      PTSUNNY   69  67  93 S13       29.68F
MANITOWOC      LGT RAIN  63  61  94 S16G24    29.72F
APPLETON       CLOUDY    66  66 100 S15G23    29.69F
CLINTONVILLE   CLOUDY    66  64  94 S9        29.66F
OSHKOSH        PTSUNNY   69  65  86 S13G20    29.69R
$$

WIZ032>034-041-042-053>061-290000-
SOUTHWEST WISCONSIN

CITY           SKY/WX    TMP DP  RH WIND       PRES   REMARKS
LA CROSSE      FAIR      74  68  81 SE6       29.60S
SPARTA         FAIR      68  66  92 S3        29.62F
VIROQUA        FAIR      67  67  99 S14       29.65S
BOSCOBEL       TSTM      67  66  97 MISG      29.64F FOG
PRAIRIE DU CHI HVY RAIN  65  63  92 SW15G32   29.67R
PLATTEVILLE    PTSUNNY   75  71  89 S18G25    29.68F
$$

WIZ056-057-062-063-064-067-068-290000-
SOUTH CENTRAL WISCONSIN

CITY           SKY/WX    TMP DP  RH WIND       PRES   REMARKS
REEDSBURG      DRIZZLE   69  69 100 S18G29    29.62F
BARABOO/DELLS  LGT RAIN  69  66  92 S23G32    29.63F
LONE ROCK      TSTM      70  66  87 NW13      29.69R FOG
MINERAL POINT  CLOUDY    75  72  88 SE12G18   29.68F
MADISON        TSTM      73  67  81 W7        29.74R
MIDDLETON      CLOUDY    74  68  81 S12G20    29.72S
WATERTOWN      CLOUDY    71  69  90 S12       29.74F
MONROE         FAIR      73  66  78 S23       29.72F
JANESVILLE     CLOUDY    73  70  88 S15G21    29.74F
$$

WIZ051-052-058>065-066-070>072-290000-
SOUTHEAST WISCONSIN

CITY           SKY/WX    TMP DP  RH WIND       PRES   REMARKS
MILWAUKEE      TSTM      71  66  84 S13       29.76F
WAUKESHA       LGT RAIN  66  64  94 S10       29.78F
MILWAUKEE/TIMM CLOUDY    66  63  88 S5        29.77F
RACINE         LGT RAIN  72  65  78 S7        29.78F
KENOSHA        LGT RAIN  73  66  78 SW7       29.77F
FOND DU LAC    FAIR      70  64  81 S17G29    29.70F
SHEBOYGAN      FAIR      64  64 100 S15       29.72F FOG
WEST BEND      LGT RAIN  64  64 100 S8        29.75F
JUNEAU         CLOUDY    69  66  90 S12G20    29.73F
$$

LSZ147-162-290000-
LAKE SUPERIOR

STATION/POSITION TIME  TEMP    WIND        PRES    WAVE
                       AIR SEA DIR/SP/G            HT/PER
                 (UTC) (F)     (DEG/KT/KT) (MB)    (FT/S)
W MID LAKE BUOY  2150   48 39   70/  8/ 10 1003.9F   1
DEVILS ISLAND    2200   56      90/ 13/ 15 1001.8F
PORT WING        2100   57      20/ 18/ 21 1001.0
SAXON HARBOR     2240   66     190/  3/  6 1000.7F
$$

LMZ867-665-643>646-290000-
LAKE MICHIGAN

STATION/POSITION TIME  TEMP    WIND        PRES    WAVE
                       AIR SEA DIR/SP/G            HT/PER
                 (UTC) (F)     (DEG/KT/KT) (MB)    (FT/S)
CHAMBERS ISLAND  2240   62     140/  4/ 12 1006.1F
S GREEN BAY BUOY 2230   65     160/ 14/ 17 1005.6F
N MID LAKE BUOY  2050   56 53  180/ 17/ 19 1009.8F   6/ 6
NORTHPORT PIER   2240   60     160/ 10/ 16 1007.1F
KEWAUNEE LAKESHO 2230   55     180/ 12/ 14 1006.7F
SHEBOYGAN LAKESH 2200   56     180/ 19/ 21 1008.4F
PORT WASHINGTON  2240   58     130/  7/  9 1009.1F
ATWATER BUOY     2109   59 50  160/ 12/ 16 1009.3F
MILWAUKEE LAKESH 2230   68     200/ 12/ 13   N/A
S MID LAKE BUOY  2150   65 60  160/ 16/ 19 1010.1F   5/ 5
KENOSHA   LAKESH 2200   66     170/ 16/ 19 1008.1
$$

TC  - TEMPERATURE IN CELSIUS
VSB - VISIBILITY IN STATUTE MILES
WCI - WIND CHILL INDEX
HX  - HEAT INDEX





USA.gov is the U.S. government's official web portal to all federal, state and local government web resources and services.